TimeCST,TemperatureF,Dew PointF,Humidity,Sea Level PressureIn,VisibilityMPH,Wind Direction,Wind SpeedMPH,Gust SpeedMPH,PrecipitationIn,Events,Conditions,WindDirDegrees,DateUTC
12:53 AM,39.0,33.1,79,30.33,10.0,NNE,5.8,-,N/A,,Clear,30,2013-12-11 06:53:00
1:53 AM,37.9,32.0,79,30.32,10.0,NNE,5.8,-,N/A,,Clear,30,2013-12-11 07:53:00
2:53 AM,37.9,32.0,79,30.32,10.0,NNE,4.6,-,N/A,,Clear,20,2013-12-11 08:53:00
3:53 AM,37.9,32.0,79,30.33,10.0,Calm,Calm,-,N/A,,Clear,0,2013-12-11 09:53:00
4:53 AM,37.9,32.0,79,30.33,10.0,NNE,4.6,-,N/A,,Clear,20,2013-12-11 10:53:00
5:53 AM,37.9,30.9,76,30.35,10.0,North,6.9,-,N/A,,Clear,10,2013-12-11 11:53:00
6:53 AM,37.0,30.9,79,30.37,10.0,North,4.6,-,N/A,,Clear,10,2013-12-11 12:53:00
7:53 AM,39.9,32.0,73,30.38,10.0,NNE,6.9,-,N/A,,Clear,20,2013-12-11 13:53:00
8:53 AM,45.0,32.0,60,30.39,10.0,NE,8.1,-,N/A,,Clear,40,2013-12-11 14:53:00
9:53 AM,50.0,30.9,48,30.40,10.0,NNE,8.1,-,N/A,,Clear,30,2013-12-11 15:53:00
10:53 AM,53.1,30.0,41,30.39,10.0,Calm,Calm,-,N/A,,Clear,0,2013-12-11 16:53:00
11:53 AM,57.0,33.1,40,30.35,10.0,Calm,Calm,-,N/A,,Clear,0,2013-12-11 17:53:00
12:53 PM,60.1,35.1,39,30.32,10.0,Calm,Calm,-,N/A,,Mostly Cloudy,0,2013-12-11 18:53:00
1:53 PM,61.0,37.0,41,30.31,10.0,North,3.5,-,N/A,,Overcast,10,2013-12-11 19:53:00
2:53 PM,62.1,39.9,44,30.30,10.0,North,5.8,-,N/A,,Overcast,350,2013-12-11 20:53:00
3:53 PM,60.1,39.9,47,30.31,10.0,North,6.9,-,N/A,,Overcast,350,2013-12-11 21:53:00
4:53 PM,57.9,37.9,47,30.33,10.0,North,5.8,-,N/A,,Overcast,350,2013-12-11 22:53:00
5:53 PM,57.0,39.0,51,30.34,10.0,NNW,3.5,-,N/A,,Overcast,340,2013-12-11 23:53:00
6:53 PM,55.9,39.0,53,30.35,10.0,North,4.6,-,N/A,,Overcast,350,2013-12-12 00:53:00
7:53 PM,55.9,39.9,55,30.36,10.0,North,6.9,-,N/A,,Overcast,350,2013-12-12 01:53:00
8:53 PM,55.9,39.9,55,30.38,10.0,North,6.9,-,N/A,,Overcast,10,2013-12-12 02:53:00
9:53 PM,55.0,37.9,53,30.39,10.0,North,6.9,-,N/A,,Overcast,10,2013-12-12 03:53:00
10:53 PM,55.0,37.0,51,30.40,10.0,NNE,8.1,-,N/A,,Overcast,30,2013-12-12 04:53:00
11:53 PM,54.0,36.0,51,30.40,10.0,NNE,8.1,-,N/A,,Overcast,20,2013-12-12 05:53:00